Date String (YYYY-MM-DD hh:mm:ss) UTC,Instrument flags,Ambient pressure (hPa),Sample flow (lpm),Bypass flow (lpm),Sample temperature (°C),Ambient temperature (°C),ASC tube jacket temperature (°C),LED temperature (°C),Box temperature (°C),Sample RH (%),Span deviation,Mass concentration (μg/m³),Mass concentration (μg/m³),Mass concentration (μg/m³)
DateTimeUTC,F1_M11,P_M11,Q1_M11,Q2_M11,T1_M11,T2_M11,T3_M11,T4_M11,T5_M11,U1_M11,ZSPAN_M11,X0_M11,X2_M11,X1_M11
2021-09-28 14:00:00,,0821.9,4.98,0.00,30.0,29.0,00.0,39.0,31.7,17.8,0001.7,0007.70,0003.07,0002.56
2021-09-28 14:01:00,,0822.0,5.01,0.00,30.0,29.0,00.0,39.0,31.7,17.6,0002.3,0007.80,0003.08,0002.56
2021-09-28 14:02:00,,0822.0,5.01,0.00,30.0,29.1,00.0,39.0,31.8,17.5,0002.7,0007.85,0003.12,0002.57
2021-09-28 14:03:00,,0821.9,4.99,0.00,30.0,29.1,00.0,39.0,31.8,17.5,0002.4,0007.65,0003.08,0002.56
2021-09-28 14:04:00,,0822.1,5.02,0.00,30.0,29.1,00.0,39.0,31.8,17.5,0001.8,0007.31,0003.08,0002.56
2021-09-28 14:05:00,,0822.3,4.99,0.00,30.1,29.1,00.0,39.1,31.9,17.5,0002.1,0007.23,0003.06,0002.57
2021-09-28 14:06:00,,0822.1,5.00,0.00,30.1,29.2,00.0,39.1,31.9,17.6,0002.4,0007.30,0003.09,0002.57
2021-09-28 14:07:00,,0821.9,5.01,0.00,30.1,29.2,00.0,39.1,31.9,17.7,0002.3,0007.90,0003.11,0002.56
2021-09-28 14:08:00,,0822.0,5.00,0.00,30.1,29.2,00.0,39.1,31.9,17.7,0000.9,0007.49,0003.12,0002.56
2021-09-28 14:09:00,,0821.8,5.00,0.00,30.2,29.3,00.0,39.1,32.0,17.8,-000.1,0006.75,0003.10,0002.54
2021-09-28 14:10:00,,0821.8,5.01,0.00,30.2,29.3,00.0,39.2,32.0,18.1,-000.2,0007.39,0003.06,0002.52
2021-09-28 14:11:00,,0821.9,4.98,0.00,30.2,29.3,00.0,39.2,32.0,18.0,0000.4,0007.45,0003.05,0002.54
2021-09-28 14:12:00,,0821.8,5.01,0.00,30.2,29.4,00.0,39.2,32.0,17.9,0000.7,0007.35,0003.05,0002.55
2021-09-28 14:13:00,,0821.8,5.00,0.00,30.2,29.4,00.0,39.2,32.1,17.7,0000.9,0007.93,0003.07,0002.56
2021-09-28 14:14:00,,0821.9,5.02,0.00,30.3,29.4,00.0,39.3,32.1,17.5,0000.8,0008.21,0003.11,0002.60
2021-09-28 14:15:00,,0821.9,5.00,0.00,30.3,29.5,00.0,39.3,32.1,17.5,0001.6,0009.03,0003.13,0002.61
2021-09-28 14:16:00,,0821.8,5.00,0.00,30.3,29.5,00.0,39.3,32.1,17.5,0001.5,0009.11,0003.16,0002.63
2021-09-28 14:17:00,,0821.8,4.99,0.00,30.3,29.5,00.0,39.3,32.1,17.5,0001.2,0009.14,0003.19,0002.66
2021-09-28 14:18:00,,0821.8,5.02,0.00,30.4,29.5,00.0,39.3,32.1,17.4,0001.2,0008.64,0003.21,0002.67
2021-09-28 14:19:00,,0822.0,4.99,0.00,30.4,29.0,00.0,39.3,32.0,17.6,0002.1,0008.99,0003.22,0002.67
2021-09-28 14:20:00,,0822.0,5.01,0.00,30.2,27.2,00.0,39.3,31.5,17.5,0000.8,0009.41,0003.29,0002.72
2021-09-28 14:21:00,,0822.0,5.00,0.00,30.1,26.9,00.0,39.3,31.4,17.9,0000.0,0009.22,0003.39,0002.80
2021-09-28 14:22:00,,0822.1,4.99,0.00,30.0,27.2,00.0,39.3,31.5,18.1,0000.0,0009.22,0003.54,0002.89
2021-09-28 14:23:00,,0822.1,4.99,0.00,30.0,27.6,00.0,39.2,31.5,18.6,0000.0,0009.84,0003.69,0003.02
2021-09-28 14:24:00,,0822.1,5.00,0.00,30.0,27.9,00.0,39.2,31.6,19.0,0000.0,0010.46,0003.84,0003.15
2021-09-28 14:25:00,,0822.1,5.01,0.00,30.0,28.2,00.0,39.2,31.6,19.4,0000.0,0011.63,0004.09,0003.24
2021-09-28 14:26:00,,0822.2,4.99,0.00,30.0,28.4,00.0,39.2,31.7,19.7,0000.0,0011.71,0004.36,0003.33
2021-09-28 14:27:00,,0822.2,5.01,0.00,30.0,28.5,00.0,39.2,31.7,19.8,0000.0,0012.80,0004.61,0003.42
2021-09-28 14:28:00,,0822.2,5.00,0.00,30.0,28.6,00.0,39.2,31.7,19.5,0000.0,0013.73,0004.90,0003.51
2021-09-28 14:29:00,,0822.2,5.00,0.00,30.0,28.7,00.0,39.2,31.7,19.4,0000.0,0015.47,0005.16,0003.61
2021-09-28 14:30:00,,0822.2,5.02,0.00,30.0,28.8,00.0,39.2,31.8,19.0,0003.3,0016.40,0005.38,0003.71
2021-09-28 14:31:00,,0822.2,5.00,0.00,30.0,28.9,00.0,39.2,31.9,19.3,0003.1,0017.95,0005.57,0003.80
2021-09-28 14:32:00,,0822.2,4.98,0.00,30.1,29.0,00.0,39.2,31.9,19.3,0003.3,0018.99,0005.72,0003.87
2021-09-28 14:33:00,,0822.2,5.00,0.00,30.1,29.0,00.0,39.2,31.9,19.2,0002.5,0020.39,0005.84,0003.93
2021-09-28 14:34:00,,0822.2,5.00,0.00,30.1,29.1,00.0,39.2,31.9,19.2,0002.4,0022.22,0005.97,0003.96
2021-09-28 14:35:00,,0822.2,5.00,0.00,30.1,29.1,00.0,39.2,32.0,19.2,0002.6,0023.17,0006.05,0003.96
2021-09-28 14:36:00,,0822.2,5.00,0.00,30.1,29.2,00.0,39.2,32.0,18.7,0002.5,0023.49,0006.11,0003.96
2021-09-28 14:37:00,,0822.1,5.01,0.00,30.2,29.2,00.0,39.2,32.0,18.9,0002.7,0023.53,0006.12,0003.95
2021-09-28 14:38:00,,0822.1,5.00,0.00,30.2,29.2,00.0,39.2,32.0,18.6,0002.1,0024.53,0006.17,0003.94
2021-09-28 14:39:00,,0822.1,4.99,0.00,30.2,29.3,00.0,39.2,32.0,18.6,0001.3,0025.18,0006.12,0003.93
2021-09-28 14:40:00,,0822.1,5.00,0.00,30.2,29.3,00.0,39.3,32.0,18.3,0001.0,0024.73,0006.04,0003.89
2021-09-28 14:41:00,,0822.1,4.99,0.00,30.2,29.3,00.0,39.3,32.0,18.6,0001.4,0025.27,0006.07,0003.87
2021-09-28 14:42:00,,0822.1,5.01,0.00,30.3,29.4,00.0,39.3,32.1,18.5,0001.6,0025.76,0006.05,0003.85
2021-09-28 14:43:00,,0822.1,5.00,0.00,30.3,28.9,00.0,39.3,31.9,18.4,0001.6,0025.23,0005.97,0003.80
2021-09-28 14:44:00,,0822.0,4.99,0.00,30.1,26.9,00.0,39.3,31.4,18.3,0002.4,0024.29,0005.90,0003.76
2021-09-28 14:45:00,,0821.9,4.99,0.00,30.0,26.0,00.0,39.2,31.2,18.6,0002.5,0023.18,0005.81,0003.72
2021-09-28 14:46:00,,0822.2,5.00,0.00,29.9,26.3,00.0,39.2,31.2,18.6,0002.3,0021.56,0005.69,0003.67
2021-09-28 14:47:00,,0822.0,5.01,0.00,29.8,26.8,00.0,39.1,31.3,19.0,0002.5,0020.05,0005.51,0003.64
2021-09-28 14:48:00,,0821.9,5.00,0.00,29.8,27.2,00.0,39.1,31.3,19.1,0001.0,0019.55,0005.36,0003.62
2021-09-28 14:49:00,,0822.1,5.00,0.00,29.7,27.5,00.0,39.0,31.3,19.1,0001.2,0018.19,0005.24,0003.60
2021-09-28 14:50:00,,0821.9,5.00,0.00,29.7,27.8,00.0,39.0,31.4,19.1,0001.9,0017.55,0005.17,0003.58
2021-09-28 14:51:00,,0822.0,5.01,0.00,29.8,28.1,00.0,39.0,31.4,19.0,0002.2,0017.85,0005.18,0003.57
2021-09-28 14:52:00,,0821.8,5.00,0.00,29.8,28.3,00.0,39.0,31.5,19.0,0001.0,0017.57,0005.12,0003.56
2021-09-28 14:53:00,,0821.8,5.00,0.00,29.8,28.4,00.0,39.0,31.5,18.7,0000.2,0016.20,0005.06,0003.53
2021-09-28 14:54:00,,0821.8,5.00,0.00,29.8,28.6,00.0,39.0,31.6,18.2,0000.7,0016.38,0004.99,0003.51
2021-09-28 14:55:00,,0821.8,5.01,0.00,29.8,28.7,00.0,39.0,31.6,18.0,0000.7,0016.32,0004.87,0003.48
2021-09-28 14:56:00,,0821.8,4.98,0.00,29.9,28.7,00.0,39.0,31.7,17.7,0000.6,0015.44,0004.75,0003.45
2021-09-28 14:57:00,,0821.8,5.01,0.00,29.9,28.8,00.0,39.0,31.7,18.1,0000.8,0015.30,0004.71,0003.43
2021-09-28 14:58:00,,0821.8,4.99,0.00,29.9,28.9,00.0,39.0,31.7,18.0,0000.8,0016.86,0004.71,0003.40
2021-09-28 14:59:00,,0821.8,4.99,0.00,29.9,29.0,00.0,39.0,31.7,17.6,0001.5,0016.84,0004.58,0003.34
